GFSSGP_250_spd_096.txt.gz
Wind_Speed
47 45 47 45 38 40 33 31 16 19 20 19 28 30 33 35 35 46 46 43 31 27 21 17 13 12 13 13 14 16 17 17 18 22 24 24 29 28 29 31 33 35 37 39 40 40 40 40 41
46 38 36 39 38 43 43 23 15 15 18 20 25 28 32 32 38 46 44 43 35 29 24 17 13 10 9 10 11 14 14 15 16 19 22 23 26 25 26 29 31 30 32 33 34 35 37 37 38
42 41 40 45 38 34 28 19 16 14 17 19 24 30 31 30 40 46 43 41 39 31 25 17 13 9 8 7 8 10 13 15 17 19 18 20 21 23 24 25 26 28 28 29 30 31 33 34 36
44 45 42 33 37 34 20 21 22 17 16 18 20 26 27 35 39 44 45 39 38 32 27 19 15 12 9 7 7 8 10 13 14 17 17 18 20 22 23 24 26 26 28 29 30 33 35 36 36
48 46 40 41 41 26 24 21 23 19 17 16 20 27 34 38 39 41 47 50 37 30 28 22 16 13 10 8 7 7 7 8 9 11 14 15 17 17 18 19 19 22 24 26 28 28 28 28 29
49 50 48 39 37 32 28 25 22 21 19 17 21 28 34 37 32 40 44 41 46 34 28 22 18 12 10 10 9 7 6 4 6 8 10 12 14 15 16 17 18 20 21 22 22 23 25 26 27
53 54 57 47 39 33 30 25 24 22 22 20 22 32 35 28 29 37 38 42 41 36 28 25 20 14 12 12 11 9 8 6 5 4 6 7 9 12 13 14 16 17 18 19 21 23 24 25 26
60 53 52 51 48 39 27 20 27 24 24 21 25 34 31 28 28 36 33 37 42 35 30 26 22 16 11 11 11 12 10 9 8 8 8 8 10 11 13 14 16 17 18 19 21 22 22 23 25
62 57 57 49 41 29 28 24 30 28 28 32 26 34 25 24 28 29 28 35 40 41 27 22 22 20 15 11 9 9 8 9 9 8 9 9 10 11 13 14 16 18 20 22 23 24 25 26 27
58 63 61 53 42 40 31 30 27 31 31 26 27 22 28 23 24 23 25 33 40 32 24 22 18 20 18 13 13 12 10 9 9 8 9 9 10 11 13 15 17 19 20 22 23 25 26 27 28
60 57 55 51 46 34 35 27 29 31 34 26 25 31 30 23 22 18 23 29 31 42 32 18 16 16 14 15 14 14 13 13 14 14 13 13 11 11 12 13 13 14 16 18 20 22 23 25 27
63 56 40 46 47 44 38 34 30 30 23 26 29 33 34 19 21 19 21 26 30 35 35 20 14 14 13 14 16 18 19 19 19 19 19 18 18 19 20 19 19 20 20 21 21 21 22 23 23
64 53 49 46 45 40 26 27 28 34 34 35 34 39 24 18 22 20 27 32 30 38 25 20 16 16 16 18 18 21 21 23 24 24 23 23 24 24 25 27 27 26 26 26 27 26 26 26 26
69 62 56 61 50 52 45 38 33 39 31 29 31 25 18 18 22 25 27 26 30 26 25 30 22 18 17 16 15 19 21 21 24 26 26 27 30 29 28 30 31 32 33 34 34 34 34 34 35
61 72 59 63 49 40 38 39 42 43 32 33 25 20 20 21 24 26 24 31 31 22 29 36 27 24 22 21 21 23 24 27 28 31 32 34 35 37 35 38 36 35 35 37 39 40 41 42 43
69 62 66 51 51 47 45 46 43 42 39 31 32 27 32 30 30 31 27 29 25 27 37 35 27 26 24 22 24 28 33 31 34 36 37 37 39 41 41 40 41 41 39 38 39 40 42 43 44
71 63 62 61 46 51 54 57 46 44 44 44 43 43 38 44 43 28 32 34 34 32 32 33 28 29 29 27 30 33 37 37 36 38 38 41 44 45 45 43 44 45 44 44 44 42 44 44 45
77 69 61 55 58 52 57 60 57 46 46 49 50 47 43 48 35 39 32 42 41 32 35 36 31 28 33 35 34 38 45 47 44 41 41 42 44 48 50 44 46 49 49 48 48 49 49 48 47
76 76 77 69 63 58 60 56 55 51 49 46 42 43 39 41 45 36 40 39 36 40 36 33 31 28 37 41 39 42 44 47 45 46 48 48 54 55 52 45 55 53 52 52 52 52 52 53 51
77 76 76 79 70 68 57 51 57 56 56 53 53 48 45 41 40 44 37 35 37 40 37 35 34 32 44 47 45 51 53 55 49 48 51 53 56 58 55 56 59 57 57 53 51 50 54 54 58
85 85 82 82 75 67 71 66 56 55 58 53 50 49 46 45 44 42 43 38 36 37 38 39 44 51 52 51 48 53 58 58 54 54 55 57 60 62 61 61 62 59 56 57 52 58 66 62 65
98 91 88 89 89 77 71 66 60 54 54 52 55 56 55 58 55 55 52 52 48 52 53 54 52 52 51 53 53 56 64 60 59 62 63 63 67 65 62 66 65 62 59 64 64 67 68 69 70
97 96 94 94 93 85 82 69 64 62 57 59 61 58 54 54 57 54 54 56 56 52 51 53 55 52 52 55 58 62 66 65 65 65 69 69 72 74 72 70 71 71 69 70 71 74 78 78 77
98 96 94 97 94 90 85 83 78 72 76 72 74 68 66 65 61 60 63 63 64 65 62 58 59 62 66 66 62 66 68 69 68 73 77 78 81 81 77 75 77 78 76 79 80 83 85 87 87
103 101 96 97 97 88 87 84 73 75 79 81 73 73 76 73 65 61 62 64 66 69 67 70 72 71 70 69 69 70 76 70 73 77 81 85 86 85 85 83 86 86 87 89 91 89 94 93 92
97 100 105 100 94 83 89 88 77 78 79 76 77 78 78 73 73 72 66 65 69 68 70 70 73 76 74 72 75 77 79 79 80 82 84 88 87 90 87 89 92 93 95 97 97 98 99 95 97
104 106 101 101 98 95 90 82 77 75 76 77 75 77 81 79 80 78 77 72 72 73 72 70 71 73 72 72 80 81 86 86 85 88 93 92 92 92 94 95 96 99 100 99 100 102 104 102 100
106 108 110 109 107 103 95 90 85 79 77 76 79 80 80 79 77 74 75 77 80 80 79 76 78 73 75 80 82 87 88 91 94 95 98 100 97 97 101 102 102 104 103 104 105 105 107 105 107
110 108 107 108 107 101 102 95 95 94 95 93 90 85 86 87 90 89 85 86 85 84 79 79 79 81 85 89 91 95 99 100 99 99 100 102 102 103 106 107 107 108 110 108 110 110 110 108 110
111 109 113 112 105 105 100 95 95 99 100 98 94 92 92 97 93 88 85 85 83 83 85 84 84 89 94 95 100 105 106 106 103 104 106 106 104 106 109 110 111 113 114 114 112 114 113 114 116

GFSSGP_250_spd_102.txt.gz
Wind_Speed
51 47 42 40 28 22 25 24 24 26 28 30 33 32 23 21 26 31 39 46 44 42 29 19 18 15 13 11 11 11 10 11 12 13 14 16 16 16 17 20 23 26 28 28 31 33 34 36 38
54 51 46 41 32 25 27 21 27 31 28 28 31 25 18 20 30 32 43 45 41 40 30 20 18 14 11 11 10 9 9 8 9 12 13 13 14 17 17 20 22 24 26 27 29 30 33 33 33
57 53 48 42 34 33 30 30 28 32 29 31 27 19 18 25 24 35 39 42 43 38 31 25 21 17 10 6 5 5 6 6 8 10 10 12 13 15 17 19 21 22 22 23 24 27 27 29 29
58 53 51 47 44 39 38 40 40 37 32 24 20 18 19 18 27 35 39 38 40 38 32 26 25 22 14 8 5 4 2 1 3 6 5 8 9 11 13 14 15 16 17 16 18 22 24 24 23
59 59 54 50 48 46 42 35 31 27 27 25 21 16 19 21 24 36 37 34 39 41 35 25 26 22 20 12 8 5 4 5 4 2 3 5 5 6 7 9 10 11 14 16 17 18 19 20 22
62 58 57 53 51 42 36 36 26 33 28 20 15 15 18 20 28 37 27 33 35 44 37 36 22 24 20 18 13 9 7 7 7 7 7 7 8 7 8 11 10 10 12 13 15 17 18 20 22
60 58 56 55 52 39 35 28 29 32 26 14 17 14 15 23 32 30 25 30 33 43 41 39 29 25 23 18 15 14 12 11 10 10 10 9 9 8 7 7 9 10 11 13 16 18 19 21 23
61 58 53 52 51 54 37 25 35 34 24 20 17 16 19 24 27 22 26 28 30 39 42 43 36 31 27 24 22 17 16 15 15 15 13 12 13 14 15 15 16 17 18 19 21 22 24 25 27
63 59 53 52 54 52 46 36 38 26 18 19 18 24 23 23 24 21 24 21 27 34 35 41 36 38 30 23 22 20 17 15 15 15 16 15 15 15 15 15 16 17 19 20 21 22 22 23 26
61 62 63 54 50 51 49 38 41 39 36 25 35 32 27 19 21 22 24 17 25 27 23 35 38 39 29 24 20 18 17 17 17 17 17 16 15 16 17 19 19 19 20 22 24 25 26 27 29
69 67 66 63 52 52 51 36 41 43 39 31 35 26 19 17 21 22 23 21 20 21 19 29 37 37 27 20 15 17 18 17 18 17 16 16 16 19 20 21 21 22 23 25 27 29 31 31 32
68 70 66 65 61 55 55 46 45 43 36 25 32 24 17 19 23 22 25 17 17 15 21 21 28 36 34 16 12 13 16 17 20 20 20 20 18 18 20 25 25 27 27 28 30 32 34 35 34
75 72 69 66 63 62 60 55 47 45 43 38 33 25 22 23 25 23 22 15 14 15 23 18 25 31 27 20 11 11 12 17 20 20 23 24 24 22 22 27 29 31 31 31 34 36 37 39 39
77 72 68 70 68 65 63 64 54 51 49 48 36 33 29 26 28 29 21 19 14 15 19 17 24 30 33 21 13 12 25 27 23 24 29 28 31 30 28 33 37 36 37 37 36 38 38 39 37
77 70 68 69 67 65 64 62 60 56 51 51 48 39 30 25 32 32 25 19 19 20 21 23 21 28 23 19 18 16 29 33 32 29 30 33 34 37 36 39 42 44 41 41 43 45 44 43 42
77 74 70 67 64 63 59 61 57 56 50 51 51 41 34 29 35 35 31 23 22 23 25 22 20 24 22 26 24 23 32 33 35 36 35 35 36 39 41 43 50 51 46 48 51 50 49 42 41
84 74 69 67 63 61 59 57 55 57 51 46 41 40 32 38 33 39 34 28 27 30 27 24 24 28 22 27 30 27 29 27 36 39 40 41 45 45 48 47 50 54 51 49 57 56 57 49 49
87 83 79 75 70 64 59 56 57 54 49 49 43 47 42 36 39 35 36 36 35 31 26 27 32 31 25 30 31 29 29 33 40 42 40 43 44 47 48 53 55 59 56 55 56 58 62 60 62
87 86 84 91 75 72 62 62 63 57 56 57 51 49 44 40 41 43 42 44 38 32 30 35 36 30 32 32 33 33 34 39 42 44 43 45 48 49 51 56 56 61 61 58 62 63 64 65 67
87 78 80 89 84 80 72 64 64 62 56 52 51 48 45 41 48 43 52 44 38 34 39 35 36 31 33 35 38 36 40 45 52 49 49 47 48 53 58 62 59 66 66 71 65 66 70 72 73
97 93 90 84 85 86 81 72 65 61 61 58 58 58 51 44 45 47 50 49 50 47 39 39 43 41 38 37 39 43 47 51 51 58 56 53 53 59 62 66 67 73 70 75 69 70 73 74 75
98 98 97 95 92 83 84 79 73 70 62 61 59 64 59 55 56 58 58 52 54 50 44 44 48 49 46 50 47 47 54 55 58 59 61 60 59 61 64 69 73 73 77 80 76 78 81 81 86
96 94 97 95 91 89 81 77 72 71 68 59 61 69 61 55 57 54 55 56 57 54 56 49 52 53 52 54 54 58 66 60 60 63 63 62 65 67 68 69 70 76 81 86 81 83 84 87 93
102 99 97 95 88 88 79 78 79 70 67 67 62 61 59 58 60 57 59 58 59 60 57 52 52 55 59 67 69 68 62 63 65 66 66 72 68 69 69 71 77 82 83 88 88 90 95 97 98
104 102 102 102 97 85 86 83 75 76 71 74 75 70 67 68 67 66 62 59 56 61 62 57 56 61 68 68 70 69 65 65 68 69 70 73 70 74 75 78 83 88 89 91 93 95 97 97 102
115 112 107 102 94 90 90 85 81 78 67 75 78 75 72 71 72 72 69 70 69 66 67 68 72 71 66 68 70 72 71 75 75 76 75 72 75 80 84 92 97 95 93 95 97 102 104 104 107
113 113 111 107 103 100 93 90 87 80 69 70 71 73 75 76 76 79 78 78 76 75 75 77 76 74 73 69 70 74 76 77 81 78 80 79 83 88 95 101 95 96 97 100 101 105 106 108 111
102 113 112 108 105 97 91 91 90 85 90 93 89 89 85 82 81 80 83 87 87 84 78 79 76 77 73 72 76 77 74 73 77 78 86 90 98 100 106 99 100 101 100 103 107 109 111 112 115
101 104 110 108 105 102 96 94 93 88 94 93 93 94 93 95 91 86 87 89 95 88 80 84 83 81 80 79 79 80 81 86 90 92 93 99 101 106 103 104 107 108 109 108 113 117 118 120 121
113 106 107 112 108 105 103 99 98 93 97 98 99 98 97 99 97 97 95 96 97 95 93 92 85 85 87 87 87 87 91 96 94 101 107 106 107 108 105 106 110 110 113 116 119 124 124 125 126

GFSSGP_250_spd_105.txt.gz
Wind_Speed
45 39 32 28 29 35 26 21 21 20 21 22 26 28 33 30 22 26 33 40 49 44 46 38 27 19 16 12 11 10 9 9 13 15 15 15 14 12 13 16 18 21 24 27 28 30 31 33 35
46 43 32 30 38 37 33 23 20 21 22 24 26 30 35 20 20 27 34 40 49 51 47 41 27 20 16 13 8 7 7 8 11 12 12 12 9 13 13 16 18 19 22 23 24 25 25 25 24
51 50 46 40 38 39 34 31 24 23 23 21 28 33 27 18 18 26 35 41 49 45 44 39 27 19 17 16 10 5 4 7 10 9 9 8 8 11 13 13 15 17 18 18 18 17 18 20 20
47 53 48 49 45 41 35 33 29 28 30 30 32 27 24 22 18 26 34 39 43 44 45 42 26 21 20 16 11 6 2 4 4 3 5 2 2 4 6 5 7 8 9 11 13 15 16 18 19
53 48 52 52 51 44 42 38 33 31 30 27 26 28 20 19 17 31 35 37 35 41 46 42 33 21 20 18 15 10 5 1 2 2 2 3 4 4 5 6 7 9 12 14 16 17 19 21 23
57 52 50 54 53 49 42 41 41 40 27 27 31 25 20 19 20 31 32 33 34 36 46 44 42 24 22 22 18 15 12 10 10 9 9 10 10 11 13 15 16 16 17 18 19 20 20 22 23
60 53 54 52 49 51 46 45 39 36 27 26 33 19 19 17 26 28 28 31 32 33 44 43 43 38 27 23 22 18 15 13 14 16 16 17 17 17 15 15 17 17 19 20 22 24 25 25 25
64 59 56 54 52 53 53 50 43 31 23 35 29 17 18 20 26 26 23 26 26 28 33 39 39 40 40 25 27 24 23 22 21 19 18 18 17 18 19 19 19 20 20 21 22 23 25 25 26
61 63 58 63 54 56 54 51 40 24 24 32 34 17 16 23 29 21 18 21 24 22 24 33 38 40 45 33 28 26 25 24 23 21 20 18 18 18 19 19 20 20 21 22 23 25 27 28 29
60 61 62 58 56 55 53 48 46 45 32 35 20 17 26 29 24 17 16 21 24 18 22 27 31 35 41 33 24 23 23 23 23 23 22 20 20 20 21 21 23 25 25 25 27 29 32 34 34
61 60 62 57 54 54 52 51 47 40 39 39 38 34 26 29 22 21 17 22 18 18 20 24 24 28 34 30 21 21 21 25 20 20 22 22 20 18 19 22 26 29 30 31 30 33 37 39 39
61 65 60 66 59 57 55 45 46 43 42 41 39 34 32 23 23 23 20 23 15 15 18 23 23 22 26 30 20 16 21 26 14 16 19 22 25 24 26 24 28 32 36 37 36 36 40 41 40
68 69 61 61 61 63 57 54 53 46 36 39 37 35 27 23 23 22 26 26 16 20 14 16 23 22 22 18 15 18 22 26 29 26 32 27 23 28 33 35 36 37 40 45 48 46 44 43 44
74 72 72 66 62 59 60 59 58 49 44 44 38 39 36 31 28 23 28 31 25 17 14 17 21 20 19 16 14 17 24 25 30 32 35 44 34 30 39 43 38 39 44 45 50 52 51 51 51
74 71 70 69 65 60 61 60 58 57 52 50 45 45 43 42 41 37 28 34 31 24 18 22 22 18 18 21 18 21 25 24 29 29 37 41 39 41 40 47 42 44 46 49 51 53 56 58 53
81 79 73 71 69 65 59 61 62 59 56 55 53 48 46 45 43 35 32 32 36 32 28 24 24 23 20 22 22 26 28 24 28 31 35 41 41 42 45 48 46 49 49 51 52 57 61 58 55
86 80 74 73 68 62 62 69 66 62 60 56 59 53 47 45 48 42 37 31 38 39 32 28 31 27 21 28 26 28 31 31 32 32 35 43 43 45 48 53 50 51 51 55 56 60 62 62 62
86 84 78 77 74 68 61 67 67 63 60 58 55 53 47 45 40 42 38 31 37 42 39 38 33 32 30 30 27 28 30 35 36 34 40 44 45 48 50 52 54 52 53 56 59 65 64 66 64
89 85 83 77 72 69 67 67 63 61 57 52 53 50 50 47 46 43 45 39 35 38 37 44 37 31 35 31 33 33 30 32 38 41 42 43 51 52 53 53 56 56 55 62 66 67 68 69 69
94 89 85 81 78 75 69 68 67 63 59 55 50 46 49 51 53 49 49 44 40 42 42 49 48 36 38 35 35 38 39 36 37 43 46 50 51 54 54 56 54 56 62 65 68 71 70 76 78
98 97 91 85 85 84 82 74 66 62 58 67 50 49 53 55 54 50 49 45 48 42 47 52 45 45 42 41 41 42 46 42 41 44 51 59 63 59 58 59 61 64 67 64 71 72 74 80 87
101 99 92 90 91 84 84 77 74 68 68 67 55 57 61 60 57 57 51 52 47 43 52 54 53 51 48 44 42 46 49 52 47 57 60 63 61 60 61 63 66 69 68 69 74 76 80 84 89
107 104 101 100 97 95 90 87 80 79 70 64 63 60 65 68 63 61 59 58 61 54 58 58 57 54 56 48 54 53 55 55 54 61 60 65 64 64 64 68 72 74 71 73 77 84 86 95 93
110 107 104 103 102 99 92 88 81 69 64 66 69 71 70 71 68 64 60 62 67 56 57 61 62 61 59 58 57 57 58 60 64 65 65 65 68 69 72 74 74 75 75 80 85 90 94 94 88
104 105 106 107 102 92 93 85 67 63 71 71 69 72 72 73 71 70 66 66 71 65 58 59 59 58 57 56 60 63 65 65 71 73 70 68 69 72 77 75 72 75 77 86 94 97 106 100 96
107 111 108 107 101 95 92 81 72 79 77 76 74 74 75 76 77 77 75 74 71 66 66 60 63 65 62 66 65 66 70 74 79 80 75 75 71 79 75 78 77 81 88 94 100 108 96 95 98
108 110 107 112 108 104 98 92 91 90 85 78 79 77 76 79 82 82 77 77 78 77 74 68 68 71 73 77 79 80 81 79 81 83 84 77 82 82 81 83 88 92 98 101 103 107 106 106 108
105 110 112 109 112 109 105 100 90 83 82 84 83 82 83 84 83 84 82 77 84 78 75 71 72 74 80 83 84 85 87 89 85 84 88 86 84 84 85 93 99 103 102 105 102 103 106 110 112
104 105 110 108 105 107 107 99 96 91 87 90 85 88 89 88 86 80 79 79 82 78 77 78 80 81 86 85 86 87 89 96 91 93 94 85 89 92 100 101 104 105 107 107 110 113 116 115 116
114 109 110 112 108 97 102 97 94 92 91 95 94 96 94 91 90 89 86 83 83 82 88 88 90 94 94 95 94 93 98 98 96 97 97 96 100 103 106 106 109 111 113 116 114 115 118 118 121

GFSSGP_250_spd_111.txt.gz
Wind_Speed
36 34 34 31 31 28 28 20 16 8 19 8 12 17 24 22 25 25 25 35 37 42 45 39 36 26 21 16 11 10 5 5 5 7 8 5 8 9 10 12 15 19 19 20 21 20 17 17 14
33 38 37 35 34 32 30 30 17 13 16 11 12 14 20 24 21 25 24 35 37 45 41 44 37 29 22 19 15 11 9 7 5 4 4 5 5 5 7 7 8 8 8 7 7 7 8 8 9
39 36 38 34 34 29 27 22 19 18 19 20 18 20 20 21 20 21 24 31 36 38 39 48 40 36 25 21 18 14 11 8 6 2 3 4 4 4 5 6 6 7 8 9 9 10 12 13 14
48 40 40 36 32 29 29 27 22 21 23 17 15 19 20 21 20 21 21 30 35 33 35 46 48 45 28 23 22 20 16 10 8 7 9 11 12 13 13 15 16 15 16 18 20 20 20 21 23
48 42 44 36 40 33 31 26 28 26 27 24 21 21 19 20 20 19 19 28 33 28 33 41 48 45 32 29 25 23 23 21 19 19 19 20 20 22 22 23 24 24 25 24 24 25 26 25 26
49 48 48 44 35 44 42 31 29 31 30 27 26 23 20 17 22 15 18 26 30 24 32 38 44 44 43 34 31 30 27 29 27 26 24 26 26 27 28 29 30 31 30 30 30 29 29 30 31
54 51 52 49 44 46 44 41 37 35 33 31 27 25 17 20 17 19 18 22 25 22 27 38 39 36 40 37 42 38 36 33 32 30 30 31 32 31 31 31 32 32 36 34 33 38 37 35 34
52 54 57 52 44 49 47 40 38 42 39 34 30 25 24 23 17 19 18 20 20 19 26 33 31 31 33 41 38 39 36 36 34 34 33 34 33 34 30 29 28 33 33 35 38 35 37 41 41
61 62 56 54 54 49 45 42 40 42 40 36 30 24 17 20 16 20 19 20 17 19 20 28 25 25 26 29 32 35 31 33 37 30 23 24 28 29 27 35 35 34 35 37 42 38 38 42 40
55 59 64 63 58 52 52 50 47 43 45 37 30 25 22 22 20 21 21 13 26 20 15 22 20 18 20 17 22 23 29 20 28 27 31 29 28 25 26 32 38 36 37 37 40 43 44 45 46
61 65 63 59 62 62 60 57 50 48 46 42 37 35 30 30 24 26 24 23 27 16 18 18 15 15 14 15 12 16 22 25 25 25 25 25 27 30 28 34 35 35 37 37 42 42 44 47 50
69 65 64 59 59 58 55 54 53 51 46 45 45 39 34 25 27 30 23 27 18 14 18 19 16 15 12 11 7 9 16 19 22 20 22 24 25 27 30 32 35 38 35 37 37 39 44 43 49
64 63 63 60 60 56 59 49 47 48 48 49 48 43 36 26 31 28 32 34 27 21 22 20 19 18 14 9 11 8 11 13 16 19 18 21 20 21 24 29 33 36 37 37 37 38 42 46 48
72 69 63 61 60 61 53 53 48 48 44 40 42 39 34 27 35 30 33 30 26 26 24 22 19 21 21 16 17 18 17 17 17 16 17 18 20 22 26 27 31 34 35 36 36 40 42 44 49
69 66 68 73 65 63 60 52 49 45 44 43 40 42 32 28 28 31 25 26 30 28 26 26 24 26 22 24 23 23 22 23 21 21 22 22 21 25 26 24 27 31 36 37 39 39 43 45 49
66 63 65 60 56 58 56 53 52 48 46 42 38 40 42 39 34 37 38 37 34 30 29 29 31 26 23 23 25 28 28 29 29 26 24 25 25 27 31 33 31 30 35 37 42 42 47 48 50
55 59 66 64 62 62 58 58 55 54 51 50 43 47 44 46 44 43 44 32 33 37 39 39 35 32 28 26 28 30 34 36 34 30 31 30 30 30 31 33 29 31 42 44 45 46 50 50 51
54 60 70 66 66 65 64 61 63 60 51 51 48 45 41 44 43 46 46 44 42 41 41 35 33 35 39 35 32 35 35 38 38 36 37 33 35 37 39 37 39 44 47 50 53 52 56 57 56
67 60 62 72 75 70 70 65 60 56 55 51 54 49 48 45 45 49 48 45 43 43 43 38 38 35 38 36 33 36 33 36 38 43 46 41 41 38 41 41 39 44 48 54 54 59 61 61 62
71 66 64 64 70 62 62 63 63 60 61 54 58 53 52 48 46 46 46 47 52 42 43 41 43 44 41 42 40 39 42 37 37 38 44 54 48 48 50 50 49 50 50 51 57 60 64 67 65
69 75 77 59 59 69 66 64 65 66 67 65 58 56 53 59 50 51 50 52 48 49 46 43 43 45 48 48 48 46 44 39 41 39 47 52 57 48 51 55 55 54 51 53 56 59 62 63 66
82 81 76 68 70 69 76 70 72 76 75 69 66 54 58 66 54 55 50 50 51 51 49 45 44 46 47 49 49 48 48 44 43 52 50 54 58 64 57 56 59 61 59 59 63 71 72 75 76
83 86 83 84 80 80 71 70 72 78 76 65 64 61 66 64 63 59 54 55 50 50 54 46 49 48 49 47 47 47 47 47 47 52 52 54 58 56 57 55 58 60 62 71 75 80 82 82 83
89 91 89 87 82 76 78 80 73 75 71 68 70 67 72 66 66 62 59 59 58 49 55 53 50 50 54 55 58 57 55 52 53 52 57 58 59 61 65 60 66 68 72 74 77 80 84 84 87
92 88 93 92 84 74 77 84 74 82 87 83 79 75 78 68 71 65 63 62 64 61 59 64 55 58 55 58 60 62 62 63 63 63 62 63 68 69 72 72 68 70 73 79 82 85 87 84 88
98 96 96 98 98 81 79 85 72 86 93 90 88 88 83 76 75 67 72 68 70 66 66 67 65 59 56 61 62 65 69 64 65 65 65 66 70 75 75 76 74 76 77 81 84 86 87 89 92
103 101 102 99 100 91 82 79 83 75 89 94 89 92 88 84 81 74 76 74 73 73 72 72 72 64 62 64 64 63 68 70 67 69 71 71 73 77 77 77 81 85 84 87 90 89 92 93 97
106 106 108 108 102 95 87 75 82 90 74 87 96 96 94 93 87 82 84 78 81 80 76 77 76 76 70 68 69 67 66 64 70 70 72 73 76 75 76 79 82 86 89 92 95 97 100 100 106
111 110 111 111 109 98 96 83 77 96 91 82 92 98 96 98 93 92 90 82 83 82 81 82 83 76 78 74 74 73 72 75 75 78 80 79 80 81 81 83 86 89 91 96 100 105 108 110 112
115 113 115 112 110 109 105 88 81 90 98 93 92 95 98 91 91 88 89 89 89 89 85 85 90 86 83 81 82 81 80 77 82 82 83 87 87 84 91 92 91 95 96 98 102 107 112 114 117

GFSSGP_250_spd_114.txt.gz
Wind_Speed
41 42 42 42 32 30 28 21 17 14 10 11 15 12 17 18 19 20 19 26 31 35 35 39 36 27 18 16 10 3 4 3 5 9 3 3 4 6 9 9 10 11 13 14 13 11 9 5 6
37 39 43 35 35 34 28 23 22 16 12 14 19 20 23 14 18 19 18 25 31 33 35 43 38 27 18 16 10 6 7 8 5 4 2 1 1 2 3 4 5 5 6 5 6 7 7 6 6
42 35 43 39 37 34 29 30 26 29 16 16 17 22 20 17 16 17 17 22 29 29 33 40 40 29 19 18 17 11 10 11 10 10 10 11 9 10 13 15 17 16 16 15 13 15 16 16 16
45 44 44 41 41 32 32 29 28 25 20 19 16 19 19 22 12 22 13 21 23 27 31 39 40 36 23 21 21 20 16 17 18 21 23 25 24 24 24 25 24 23 21 19 18 17 18 19 19
48 47 45 38 34 36 30 29 26 24 20 20 23 22 20 18 11 15 17 17 21 22 29 35 39 39 33 29 28 29 29 28 29 30 29 29 29 29 28 29 27 25 25 25 26 25 24 24 25
47 47 50 47 40 37 33 29 27 28 26 25 25 23 21 16 18 11 13 13 18 20 26 30 34 35 37 40 30 34 33 35 33 31 29 28 30 30 31 30 29 31 26 25 29 30 28 31 31
55 54 52 51 45 42 38 30 32 31 26 26 28 24 25 17 16 13 13 16 15 18 27 25 30 28 37 36 39 42 36 31 32 35 33 32 31 32 27 27 28 27 31 33 35 38 37 34 34
56 52 52 53 50 43 41 36 38 39 35 33 29 33 25 12 13 11 14 14 17 19 24 22 27 25 27 29 31 32 32 29 26 24 23 24 24 26 29 27 32 27 34 34 34 36 36 36 39
67 61 55 54 49 45 46 42 42 39 35 30 26 26 23 15 15 20 16 20 13 22 29 15 23 20 20 19 24 25 26 28 22 22 23 28 19 19 24 26 24 29 31 31 35 34 37 36 38
62 59 66 52 55 51 48 49 41 39 37 32 34 36 32 20 18 18 18 17 23 20 17 13 14 20 16 14 16 17 19 21 21 23 25 23 24 24 24 23 24 27 30 29 28 31 34 35 35
64 60 59 69 57 56 52 51 50 46 41 37 37 39 36 35 30 23 21 18 14 15 15 17 13 18 14 13 10 11 11 12 15 15 16 18 19 23 22 22 22 23 25 26 27 30 31 36 39
72 68 64 69 68 61 55 54 51 50 45 45 41 40 37 38 35 26 20 19 18 18 22 16 16 14 16 11 8 10 11 8 10 15 13 14 16 16 18 19 20 21 21 22 26 30 34 40 42
66 69 63 67 67 56 62 58 55 50 52 51 53 49 44 39 37 32 24 22 23 27 21 21 17 18 14 16 16 12 14 15 10 12 12 16 15 14 15 20 20 21 21 25 30 33 39 40 44
65 66 61 60 70 66 60 59 57 50 50 47 44 39 40 43 44 35 25 28 26 27 24 20 22 22 20 21 20 20 21 18 17 20 16 17 21 18 19 22 24 28 26 26 29 34 40 41 43
65 66 68 68 66 65 62 58 58 55 50 49 44 40 38 35 36 24 34 32 27 26 23 29 19 19 29 25 20 22 20 24 23 26 28 25 25 22 22 22 22 25 26 34 34 43 43 48 48
60 68 69 71 69 63 62 62 58 58 57 51 45 49 39 37 36 29 35 29 33 33 33 31 23 30 31 31 23 25 24 26 25 27 32 29 29 29 26 28 30 30 32 32 39 44 48 49 50
51 56 71 72 71 70 74 67 61 61 58 53 49 46 37 33 35 37 35 30 35 34 30 30 32 32 30 29 32 34 33 33 34 32 31 32 32 35 35 34 33 36 36 36 42 47 44 46 49
56 53 61 72 74 71 70 70 69 67 61 62 53 48 49 41 35 37 39 39 42 44 40 35 38 35 34 36 33 34 37 35 35 35 33 32 33 35 36 38 44 45 43 49 49 48 51 55 55
68 65 55 61 69 70 70 72 72 70 61 64 54 55 52 43 40 38 41 41 42 43 45 45 45 39 39 36 35 36 38 41 40 39 41 39 38 35 33 38 44 45 46 49 51 52 56 56 57
69 69 59 54 56 68 70 70 67 61 60 60 60 55 56 48 45 46 43 43 43 48 53 45 44 43 43 40 41 41 42 45 47 49 43 44 43 41 43 45 43 48 49 54 54 58 58 59 60
68 76 66 61 55 63 70 72 65 65 65 64 65 60 58 54 47 51 48 45 47 46 49 49 48 49 46 44 44 45 44 47 49 47 48 50 47 44 46 44 44 47 48 55 58 59 60 66 68
75 78 73 70 64 56 68 72 68 72 71 69 70 68 58 60 53 60 56 50 54 53 48 48 48 48 47 47 47 46 45 47 45 46 47 50 50 51 48 49 54 55 57 59 63 64 68 68 70
86 84 82 72 70 68 60 61 72 78 75 74 74 66 59 63 64 64 61 57 58 60 59 54 53 51 50 51 50 46 50 52 48 50 51 54 53 55 53 55 58 61 62 66 69 71 73 71 71
92 85 89 81 77 74 68 57 53 73 81 75 73 70 68 68 70 73 72 63 61 65 65 62 57 60 52 48 54 47 49 51 53 57 60 63 60 64 65 64 65 66 66 70 69 77 79 78 77
91 92 89 89 82 72 79 72 57 58 73 80 79 78 77 73 74 82 84 72 66 69 71 67 58 63 60 54 54 60 56 56 61 59 61 63 65 69 71 70 69 72 73 71 72 76 78 80 82
94 93 96 96 90 86 83 76 68 70 66 69 83 86 86 82 79 84 88 85 69 74 77 72 68 67 62 63 60 62 64 64 64 60 63 67 71 69 72 72 72 76 75 76 79 78 82 81 83
101 99 98 99 98 96 86 82 79 79 78 74 78 80 91 86 81 83 86 78 76 77 84 79 74 69 68 68 66 65 69 71 67 64 68 71 75 75 74 74 73 77 79 83 86 87 88 90 92
102 103 102 102 101 100 95 85 83 86 86 82 76 85 82 84 85 83 80 80 83 85 84 82 79 76 77 70 71 72 72 75 79 78 74 75 78 80 81 83 82 83 83 85 88 90 94 97 100
107 108 107 106 104 104 102 96 91 90 93 91 88 82 85 88 85 86 88 88 89 91 92 89 85 82 81 78 76 77 79 77 80 87 83 77 84 86 85 88 88 91 91 91 92 95 98 100 103
115 114 113 110 110 106 106 99 95 95 94 102 91 92 85 89 93 94 95 96 98 96 95 90 91 90 84 85 82 83 86 86 85 90 92 93 88 93 93 96 95 99 99 99 100 101 103 106 109

GFSSGP_250_spd_117.txt.gz
Wind_Speed
44 43 40 38 35 36 35 28 21 17 13 8 8 9 19 23 20 19 20 22 30 31 39 44 37 23 14 11 5 2 2 5 7 8 4 4 7 6 3 2 2 3 2 3 4 4 4 6 7
41 45 45 45 42 39 39 29 25 17 16 8 11 12 18 23 18 21 18 21 22 28 36 40 44 27 18 12 5 4 6 8 6 7 5 4 5 7 7 7 9 10 11 13 12 11 10 9 10
44 44 46 47 43 39 42 30 25 22 20 18 15 17 17 21 22 21 16 21 17 26 34 42 40 37 21 13 8 8 11 11 8 9 12 13 13 18 20 20 19 19 19 18 16 15 15 13 12
53 46 44 47 43 41 40 34 28 25 25 21 16 17 20 22 17 14 17 15 16 25 33 37 38 37 25 15 17 15 17 17 19 22 24 25 26 26 25 24 24 22 20 18 17 17 17 18 21
51 47 40 41 43 44 39 39 30 26 24 21 19 19 17 19 18 19 14 14 15 21 31 30 34 35 33 23 20 24 25 27 28 28 29 29 31 32 30 29 29 26 26 22 21 23 27 26 26
53 51 45 44 40 46 40 36 29 28 25 22 19 25 20 19 20 10 12 20 19 18 24 27 28 31 34 38 31 28 30 32 31 31 30 29 29 30 29 30 29 31 31 33 33 29 30 29 30
57 56 55 51 45 45 38 32 32 28 25 28 22 23 24 20 18 8 12 19 16 19 20 24 22 26 28 34 31 34 33 31 30 30 28 27 25 25 27 27 26 25 22 25 23 28 26 30 29
53 51 55 53 46 47 41 35 34 32 26 26 26 26 25 16 11 11 10 15 19 16 19 21 18 21 28 23 24 26 27 29 26 25 19 18 15 15 15 16 17 20 23 25 24 28 32 32 34
60 53 54 52 52 48 46 44 39 37 35 35 32 32 24 15 12 14 15 12 14 16 21 17 13 16 21 26 19 19 20 21 22 25 22 23 25 19 19 20 18 19 21 23 25 26 28 30 30
61 59 61 56 57 54 49 48 46 41 39 37 37 29 25 26 23 21 10 14 15 19 18 16 18 10 15 19 20 17 18 17 18 22 21 21 21 22 21 24 21 19 19 20 23 26 28 29 30
68 71 66 60 58 56 51 46 46 44 42 40 36 34 28 29 31 29 33 25 23 20 10 12 23 18 10 14 17 17 12 13 14 16 15 15 15 13 15 17 18 16 15 13 19 25 27 31 34
66 65 73 68 63 59 53 50 48 47 42 45 41 36 36 33 35 34 30 32 22 19 15 16 21 18 16 12 14 18 14 15 14 10 14 15 16 15 13 12 17 20 18 18 19 24 32 35 38
72 67 67 63 70 67 66 61 52 54 50 45 49 45 42 40 40 41 41 38 30 26 24 17 24 23 19 19 16 15 17 17 18 13 15 17 15 18 17 14 17 17 19 20 26 31 33 36 42
75 70 70 65 69 65 62 52 58 56 55 51 49 46 43 40 41 42 41 34 32 29 27 23 26 19 19 13 22 24 17 21 18 20 22 23 27 27 27 25 25 24 25 27 31 34 33 37 44
74 76 71 69 66 60 68 67 62 61 56 57 55 47 45 42 46 43 38 33 27 28 33 29 22 23 21 19 27 24 26 23 24 24 26 24 26 29 28 30 28 31 32 32 36 37 37 44 46
69 75 75 72 66 61 67 68 56 59 63 48 56 53 54 52 44 37 35 36 25 33 27 27 31 33 23 23 28 22 24 27 30 32 35 35 25 30 30 30 33 35 36 38 40 43 45 49 50
65 54 63 70 69 66 66 69 58 58 58 64 63 55 53 49 43 40 42 36 28 35 34 30 35 28 29 31 35 30 29 29 31 36 38 35 34 35 35 32 36 35 36 39 43 42 45 44 50
62 65 63 65 72 72 70 74 65 66 64 63 64 57 58 53 46 44 42 40 40 38 37 36 34 35 37 42 38 34 33 31 32 35 37 42 42 43 45 42 43 38 40 44 43 44 48 50 52
66 65 61 59 65 72 73 77 71 64 63 65 63 61 63 61 51 45 42 36 39 39 41 41 45 46 42 39 41 40 38 36 38 43 44 47 49 47 51 46 48 44 45 46 46 50 56 56 58
70 71 66 60 59 64 76 81 74 68 69 67 65 62 63 61 58 55 53 49 45 42 42 42 39 40 45 54 52 45 43 43 42 44 45 49 48 52 52 50 49 50 49 50 52 58 62 66 61
73 73 72 70 65 58 64 76 75 73 72 71 67 66 67 67 63 60 59 59 55 50 48 45 50 46 51 57 49 48 49 48 45 44 42 44 51 50 49 50 49 49 53 54 56 61 64 65 67
79 80 78 73 74 66 53 59 73 75 75 74 76 73 72 70 66 62 61 63 56 55 52 50 46 49 49 48 49 49 46 47 48 48 47 49 50 50 50 53 58 61 62 61 66 68 66 67 69
85 84 83 78 78 71 61 52 59 69 78 81 80 77 74 70 67 65 67 66 62 61 58 56 59 55 57 52 52 52 51 49 49 50 49 51 53 55 59 57 63 66 68 67 68 73 74 73 74
91 89 88 85 84 76 70 57 53 56 73 80 82 80 78 74 71 72 68 71 69 65 66 61 63 65 61 59 62 62 61 57 54 50 57 53 57 58 58 62 63 65 71 69 72 71 75 76 77
93 88 93 90 86 78 73 68 56 63 64 68 76 84 84 76 75 78 74 76 79 71 68 68 70 70 68 67 65 67 67 62 63 60 57 62 65 65 64 64 70 69 70 75 78 77 76 82 81
97 95 93 93 90 86 82 73 64 71 71 69 66 71 86 84 81 83 81 80 83 75 76 74 73 77 80 72 72 72 72 72 66 70 70 65 69 75 74 75 75 75 76 78 80 84 86 87 88
101 101 101 100 97 95 89 83 80 73 79 74 72 72 70 71 82 91 90 87 87 84 82 80 81 81 85 85 81 78 77 77 75 71 71 75 74 78 78 81 84 85 89 87 86 85 89 91 94
102 101 102 104 103 99 92 91 86 84 82 85 81 79 79 76 76 74 91 92 93 87 86 84 85 85 87 90 87 84 80 84 80 79 77 82 80 80 82 85 86 87 92 92 93 94 96 97 101
104 104 105 104 105 104 100 96 94 90 89 90 89 88 88 86 84 79 77 89 95 92 91 92 93 92 92 90 90 86 86 85 90 89 86 83 87 87 89 90 92 92 95 97 99 97 101 101 103
107 105 108 110 108 107 103 95 95 95 95 96 95 95 95 95 93 90 86 85 84 84 86 93 95 97 96 94 92 87 88 92 96 97 91 91 88 95 95 94 95 100 101 101 102 107 104 106 105

GFSSGP_250_spd_123.txt.gz
Wind_Speed
43 47 43 39 38 32 25 24 23 22 18 11 8 3 6 12 15 14 21 23 29 33 34 44 41 27 25 20 10 7 5 6 6 6 3 4 3 2 2 1 3 3 4 7 10 11 11 12 12
44 45 44 44 38 31 31 27 23 25 19 20 10 4 4 11 11 15 17 23 27 32 31 39 44 34 28 24 18 12 5 4 4 4 6 6 8 9 8 11 15 16 16 17 17 18 17 18 20
46 39 34 42 35 34 35 28 26 24 23 21 16 6 6 10 8 13 14 22 23 30 32 35 40 40 34 30 21 15 13 10 8 10 12 13 16 19 20 21 22 21 20 20 20 25 28 24 22
48 46 43 41 38 37 42 34 31 28 16 23 19 9 7 8 8 10 15 18 19 28 28 30 35 42 42 37 32 26 23 21 23 21 23 23 25 26 25 23 22 23 23 26 29 26 23 20 21
56 59 53 48 37 43 39 34 28 24 24 27 19 12 11 9 9 11 14 12 18 21 26 28 30 35 42 40 39 36 31 26 23 23 25 24 25 27 27 26 24 27 28 24 22 22 24 21 21
63 56 55 53 44 40 43 43 36 34 30 28 28 15 11 9 10 11 9 12 15 15 21 25 24 27 33 37 36 36 32 31 28 26 26 28 30 28 27 24 21 20 18 18 19 16 19 23 26
65 59 55 53 44 44 37 39 41 36 34 32 31 26 12 12 11 10 6 11 12 11 16 20 19 21 23 26 32 32 32 27 28 23 21 21 20 17 15 13 15 18 18 19 22 19 21 20 22
66 65 59 59 54 49 44 35 34 35 35 35 32 24 16 17 13 11 4 5 5 11 16 16 15 14 16 15 20 24 23 24 23 22 22 14 12 17 22 20 17 13 11 14 19 21 22 22 22
70 64 61 60 50 49 48 43 36 31 33 36 33 27 16 19 16 16 7 2 1 11 14 14 12 14 9 11 13 14 20 19 18 17 19 19 17 16 16 15 16 16 16 16 16 19 22 24 24
74 69 66 64 58 53 51 48 43 36 31 36 33 27 18 18 18 20 20 10 9 15 11 15 24 12 9 5 11 9 13 15 16 17 14 17 18 18 15 16 18 16 17 18 16 15 17 22 25
72 69 66 65 64 60 55 50 48 43 34 35 33 26 24 21 20 24 22 23 17 16 20 19 26 16 11 7 9 12 8 12 14 15 14 14 14 19 20 18 17 18 17 18 18 13 26 28 28
62 67 69 71 70 64 60 50 48 46 42 37 37 32 29 26 29 28 27 19 20 22 24 24 27 19 17 12 13 12 11 12 15 15 13 13 15 17 21 22 22 21 19 22 20 25 27 31 31
71 69 68 63 59 58 58 49 51 52 47 44 36 35 31 30 29 29 30 28 28 28 25 27 27 24 18 20 18 17 16 13 16 19 16 16 17 20 21 24 18 20 24 29 30 33 34 37 39
75 74 67 65 60 59 53 47 44 46 42 44 40 39 36 34 31 32 34 29 31 32 29 24 24 30 21 24 25 18 18 20 20 20 18 20 25 28 22 24 26 24 27 38 34 35 36 41 42
73 75 72 67 65 65 56 48 51 49 46 48 42 39 34 35 31 35 36 37 32 29 25 24 28 32 26 26 27 25 26 25 27 22 25 30 31 33 30 30 28 31 34 38 37 38 39 39 48
73 78 77 74 72 68 62 57 58 49 50 50 47 42 44 42 35 39 43 42 35 31 33 34 30 31 25 25 23 23 24 29 33 28 30 30 36 35 33 31 34 38 38 38 38 44 44 46 45
60 64 77 80 73 69 67 70 64 54 55 52 48 48 49 50 47 42 40 46 44 38 37 35 32 27 28 32 28 32 26 28 29 29 35 33 37 34 37 38 40 41 41 40 43 45 46 43 42
63 60 57 70 80 76 75 73 63 59 56 53 53 52 52 54 48 45 48 46 50 44 42 38 36 31 32 33 39 37 31 30 39 41 35 38 40 47 47 46 46 47 45 44 48 49 51 49 49
74 71 61 54 57 71 78 70 66 64 61 58 53 54 51 55 52 49 51 49 47 46 45 45 41 44 40 35 40 40 41 43 44 46 42 43 47 52 53 50 50 48 49 49 50 55 57 57 57
78 74 68 61 55 56 71 75 73 67 68 61 58 57 59 56 55 48 42 44 45 46 51 49 44 44 41 41 39 45 43 46 47 50 53 57 43 49 55 53 54 52 51 54 57 58 59 61 61
79 76 76 68 64 58 57 69 76 76 71 68 70 59 61 59 57 54 52 51 55 55 54 55 54 50 49 51 48 47 47 49 51 50 52 53 53 57 58 60 63 60 56 54 62 64 64 65 65
83 80 79 76 71 64 57 56 65 69 73 73 68 64 62 61 63 58 56 58 60 59 58 59 60 55 56 56 55 54 53 53 57 58 60 56 59 63 67 65 60 64 65 65 66 65 67 73 72
85 83 83 81 78 71 65 57 58 60 63 66 69 69 65 66 68 65 66 63 64 63 64 62 64 61 61 61 64 61 60 58 59 61 62 62 63 65 66 66 66 67 74 76 76 76 79 76 77
93 91 86 82 80 77 67 65 61 57 60 59 60 65 68 69 70 69 74 70 67 68 70 66 68 67 66 65 68 67 68 68 67 65 65 70 71 72 72 71 69 70 71 76 78 79 83 84 86
99 96 95 91 87 76 72 69 59 64 62 62 62 61 59 62 67 67 67 70 68 70 72 76 71 72 71 71 72 73 72 74 75 76 71 69 77 79 79 81 84 85 85 86 80 85 87 90 92
96 96 98 88 84 80 75 71 62 69 72 68 66 67 64 62 57 59 60 63 68 71 73 75 78 75 73 75 77 77 77 78 77 83 81 80 80 79 79 82 89 91 91 91 93 93 95 99 101
103 101 97 93 89 82 82 73 71 77 76 72 70 70 69 67 67 64 60 61 63 66 67 68 69 71 71 72 76 80 82 83 83 83 83 90 90 89 89 90 89 91 96 98 100 103 103 102 104
106 102 103 98 94 90 88 82 77 78 81 80 80 76 73 73 73 71 68 65 62 64 65 66 66 67 71 74 74 75 77 81 85 87 88 86 89 90 94 95 97 100 97 99 103 105 110 110 109
104 105 104 100 99 97 89 87 84 83 84 85 84 83 80 78 76 77 76 75 73 69 69 70 70 71 72 73 75 77 80 83 86 87 91 93 93 88 88 90 90 92 96 99 102 106 109 109 113
109 106 104 102 95 94 91 89 91 89 90 90 87 87 86 83 83 83 84 83 80 79 79 78 79 78 79 80 81 83 82 83 83 83 85 88 88 89 91 92 94 98 101 100 101 102 106 106 110